Temp
11 11 12 12 12 11 11 11 12 11 11 11 10 10 10 10 9 9 9 8 8 9 9 9 9 8 8 8 8 8 8 8 8 8 8 8 8 8 8 8 8 8 8
11 11 12 12 12 11 11 11 11 11 11 11 10 10 10 10 9 9 9 8 8 9 9 9 8 8 8 8 8 8 8 8 8 8 8 8 8 8 8 8 7 8 8
11 11 11 11 11 11 11 11 11 11 11 11 10 10 10 9 9 9 8 8 9 9 9 9 8 8 8 8 7 7 7 7 7 7 8 8 8 8 8 8 8 8 7
10 10 10 11 11 11 11 11 11 11 11 10 10 9 10 9 9 8 8 8 8 8 9 8 8 8 8 7 7 7 7 7 7 7 7 7 7 8 8 8 8 8 8
9 10 10 10 10 11 11 10 10 10 10 10 10 9 8 8 8 8 8 8 8 8 8 8 8 8 7 7 7 7 7 7 7 7 7 7 7 8 8 8 8 8 8
9 10 10 10 10 11 10 10 10 10 10 10 10 9 8 8 8 8 8 8 8 8 8 8 8 7 7 7 6 6 7 7 7 7 7 7 7 7 7 8 7 7 7
8 9 9 10 10 10 9 9 9 9 9 9 9 9 8 8 8 8 7 8 8 8 8 8 7 7 7 6 6 6 6 6 6 7 7 7 7 7 7 7 7 7 7
7 8 8 8 9 9 9 9 9 9 9 9 9 8 8 8 8 7 7 7 7 8 7 7 7 7 7 6 6 6 6 6 7 7 7 7 7 7 7 7 7 7 7
7 7 7 8 8 8 8 9 9 9 9 9 9 8 7 7 8 7 7 7 7 7 7 7 7 7 6 6 6 6 6 6 6 6 7 7 7 7 7 7 7 7 7
6 6 6 7 8 8 8 8 8 8 9 9 9 8 7 7 7 7 7 7 7 7 7 7 6 6 6 6 6 6 6 6 6 6 7 7 7 7 7 7 7 7 7
5 6 5 6 7 7 8 8 8 8 8 8 9 8 8 7 7 7 7 7 7 7 7 6 6 6 6 5 6 6 5 6 6 6 6 6 7 7 7 7 7 7 7
5 5 5 6 6 6 6 7 7 8 8 8 8 9 7 7 6 7 6 7 7 7 7 6 6 5 5 5 5 5 5 6 6 6 6 6 6 7 7 7 7 6 6
6 5 5 5 5 5 6 6 7 7 7 8 8 8 8 7 7 7 6 7 7 7 7 7 6 5 5 5 5 5 6 5 6 6 6 6 6 6 6 6 6 6 6
5 5 5 5 5 5 5 5 5 6 6 7 7 8 8 7 7 6 6 6 7 7 7 6 6 5 5 5 5 5 5 5 5 5 5 6 6 6 6 6 6 6 6
4 5 5 4 4 5 4 4 5 5 5 5 6 7 7 6 6 6 6 6 6 7 6 6 6 5 5 4 5 5 5 5 5 5 5 6 6 6 6 6 6 6 6
4 4 4 4 4 4 4 4 4 5 5 5 5 6 6 6 5 6 6 6 6 5 6 6 6 5 4 4 4 5 5 5 5 5 5 6 6 6 6 6 6 6 6
3 3 4 4 4 4 4 4 4 5 4 4 4 5 5 6 5 6 6 6 5 5 5 5 5 5 4 4 4 5 5 5 5 5 5 5 6 6 6 5 6 6 6
3 3 3 4 4 4 4 3 4 4 3 4 4 4 4 5 5 5 6 5 4 4 4 4 5 5 4 4 4 4 5 5 5 5 5 5 6 6 6 5 5 6 5
3 2 2 3 4 4 4 3 3 3 3 3 3 4 4 4 4 5 6 5 4 3 3 4 4 4 4 4 4 4 5 5 5 5 6 5 5 6 6 5 5 5 5
3 1 2 2 3 3 3 3 3 3 3 4 4 4 4 4 3 4 4 3 3 2 3 4 4 4 4 4 4 4 5 5 5 5 5 5 5 5 5 4 4 5 4
1 0 1 1 2 3 3 3 3 4 4 3 4 4 4 4 4 4 3 3 2 2 3 3 4 4 4 4 4 4 5 5 5 4 4 4 4 4 4 4 4 4 3
-1 -0 -0 1 1 1 2 3 3 3 3 3 3 3 4 4 4 4 4 3 2 2 2 2 4 4 4 4 4 4 4 4 4 3 3 3 4 4 3 3 3 3 3
-2 -1 -1 0 1 1 1 2 3 3 3 3 3 4 4 4 5 4 3 3 3 2 2 3 3 3 4 4 4 4 4 4 3 3 3 3 3 3 3 3 3 2 2
-1 -1 -1 -0 0 1 1 2 3 3 3 4 4 4 4 5 5 2 3 2 1 1 2 3 3 3 3 3 4 3 4 3 3 3 3 2 3 3 2 3 2 2 2
-1 -1 -0 0 1 1 1 2 2 3 4 4 4 3 3 3 3 2 2 2 1 2 1 2 3 3 3 3 3 3 2 2 2 3 3 3 2 2 2 2 2 2 2
-2 -1 0 1 1 1 1 2 3 3 3 3 3 2 3 3 3 3 1 0 0 2 2 2 1 2 2 2 1 2 2 1 2 2 2 2 2 2 2 1 2 2 1
Height
3143 3144 3144 3145 3146 3147 3148 3148 3149 3149 3150 3150 3150 3151 3152 3153 3155 3157 3158 3159 3160 3160 3161 3160 3159 3159 3159 3159 3160 3160 3161 3161 3161 3161 3161 3161 3160 3160 3160 3160 3159 3159 3159
3141 3142 3143 3144 3145 3145 3147 3147 3148 3149 3149 3150 3151 3151 3152 3153 3155 3157 3158 3160 3160 3160 3161 3160 3160 3160 3160 3161 3161 3161 3161 3161 3161 3161 3161 3161 3161 3162 3162 3161 3161 3160 3160
3139 3140 3141 3142 3142 3144 3145 3147 3147 3148 3149 3150 3150 3151 3152 3153 3155 3157 3159 3160 3160 3160 3161 3161 3161 3161 3161 3161 3162 3162 3162 3162 3163 3163 3162 3162 3163 3163 3163 3162 3162 3162 3162
3138 3139 3140 3141 3142 3143 3144 3145 3146 3147 3148 3149 3150 3151 3152 3154 3155 3157 3159 3160 3161 3160 3161 3161 3162 3162 3162 3162 3162 3163 3164 3164 3164 3164 3164 3164 3164 3164 3164 3164 3163 3163 3163
3136 3138 3139 3140 3141 3141 3143 3144 3145 3146 3147 3148 3149 3150 3152 3154 3155 3157 3159 3160 3161 3161 3161 3162 3162 3163 3163 3163 3163 3164 3165 3165 3165 3166 3165 3165 3166 3166 3166 3165 3165 3165 3164
3133 3135 3137 3138 3139 3141 3141 3142 3143 3144 3146 3147 3148 3150 3152 3154 3156 3157 3158 3159 3161 3161 3161 3162 3163 3163 3164 3164 3164 3165 3166 3166 3166 3167 3167 3167 3167 3167 3167 3167 3167 3166 3166
3130 3132 3135 3136 3137 3139 3140 3140 3141 3143 3144 3145 3147 3149 3152 3154 3155 3157 3158 3159 3160 3160 3161 3162 3163 3164 3164 3165 3165 3165 3166 3167 3168 3168 3168 3168 3169 3169 3169 3168 3168 3167 3166
3127 3129 3130 3132 3134 3136 3138 3139 3140 3142 3143 3143 3145 3147 3150 3153 3154 3156 3157 3158 3159 3160 3161 3161 3163 3164 3164 3165 3166 3167 3167 3168 3168 3168 3169 3169 3170 3170 3170 3169 3168 3168 3167
3120 3124 3126 3128 3131 3134 3136 3138 3139 3140 3141 3142 3144 3145 3147 3150 3152 3154 3156 3158 3158 3160 3161 3161 3162 3164 3165 3166 3166 3167 3168 3168 3168 3169 3169 3170 3170 3169 3170 3169 3169 3168 3167
3117 3119 3122 3125 3127 3130 3133 3135 3136 3138 3140 3140 3142 3143 3145 3147 3150 3153 3154 3156 3158 3159 3160 3161 3162 3163 3165 3166 3167 3168 3168 3168 3169 3169 3169 3170 3170 3170 3169 3169 3169 3168 3167
3113 3115 3117 3120 3123 3125 3128 3131 3133 3135 3136 3138 3140 3140 3142 3145 3146 3150 3153 3155 3157 3158 3159 3161 3162 3163 3164 3165 3166 3168 3168 3168 3168 3168 3169 3169 3169 3169 3169 3169 3168 3168 3167
3105 3110 3113 3115 3117 3119 3122 3126 3129 3131 3133 3134 3137 3138 3139 3142 3144 3148 3151 3154 3155 3157 3158 3160 3161 3162 3164 3165 3166 3167 3167 3167 3167 3167 3168 3168 3167 3168 3167 3167 3167 3167 3166
3101 3103 3106 3110 3112 3115 3118 3120 3123 3127 3129 3131 3134 3136 3137 3138 3142 3145 3148 3150 3153 3155 3157 3158 3160 3161 3163 3164 3165 3165 3166 3166 3166 3167 3166 3166 3166 3166 3166 3166 3166 3165 3165
3096 3098 3101 3103 3105 3110 3113 3115 3118 3122 3124 3127 3129 3131 3133 3136 3138 3143 3145 3147 3150 3153 3155 3157 3158 3159 3161 3162 3163 3164 3164 3165 3165 3166 3165 3165 3166 3165 3164 3164 3164 3164 3163
3089 3091 3094 3097 3100 3103 3108 3110 3113 3117 3120 3123 3125 3127 3129 3132 3136 3140 3142 3143 3146 3148 3151 3154 3156 3158 3159 3160 3162 3163 3163 3163 3164 3164 3164 3164 3164 3164 3163 3162 3162 3161 3161
3081 3086 3088 3090 3093 3098 3101 3104 3108 3112 3116 3118 3121 3124 3126 3129 3132 3136 3139 3139 3143 3146 3147 3150 3154 3156 3157 3158 3160 3160 3161 3161 3162 3162 3162 3162 3162 3161 3161 3161 3161 3158 3158
3072 3078 3081 3085 3088 3091 3095 3100 3102 3105 3110 3113 3116 3118 3122 3125 3128 3131 3134 3136 3139 3142 3144 3145 3148 3151 3153 3155 3157 3158 3158 3159 3160 3160 3161 3161 3160 3160 3159 3158 3158 3156 3156
3061 3067 3074 3078 3082 3085 3089 3092 3096 3100 3103 3108 3110 3113 3117 3121 3122 3125 3128 3130 3133 3139 3139 3142 3145 3148 3150 3152 3154 3155 3156 3156 3156 3157 3158 3159 3158 3158 3157 3156 3155 3154 3153
3050 3057 3064 3070 3075 3080 3084 3086 3090 3094 3097 3101 3105 3108 3113 3114 3118 3120 3121 3123 3127 3131 3135 3137 3141 3144 3146 3149 3150 3151 3152 3152 3153 3154 3155 3155 3155 3154 3154 3154 3152 3151 3149
3038 3046 3054 3060 3067 3072 3077 3079 3083 3086 3091 3095 3099 3103 3106 3110 3112 3115 3117 3113 3114 3121 3128 3132 3136 3138 3142 3145 3146 3147 3147 3148 3149 3150 3150 3151 3151 3151 3150 3148 3148 3147 3144
3026 3035 3044 3050 3057 3062 3067 3072 3076 3079 3085 3088 3092 3097 3099 3103 3106 3105 3108 3109 3111 3119 3122 3127 3132 3133 3138 3140 3141 3143 3143 3143 3144 3144 3144 3145 3144 3145 3143 3142 3141 3141 3138
3016 3027 3036 3043 3049 3054 3060 3066 3069 3074 3077 3082 3085 3088 3090 3095 3098 3100 3102 3103 3108 3112 3115 3121 3124 3128 3132 3135 3137 3137 3137 3139 3139 3139 3138 3138 3138 3139 3136 3137 3135 3134 3133
3010 3019 3028 3036 3043 3048 3054 3059 3062 3065 3068 3070 3075 3080 3081 3084 3089 3091 3095 3097 3100 3104 3109 3114 3120 3124 3127 3130 3131 3131 3131 3132 3133 3133 3134 3134 3133 3131 3130 3130 3129 3128 3127
3006 3013 3022 3029 3035 3042 3047 3051 3056 3058 3060 3063 3067 3069 3071 3072 3077 3081 3086 3090 3091 3097 3106 3112 3115 3118 3121 3124 3125 3126 3126 3126 3126 3127 3128 3129 3127 3124 3123 3123 3122 3122 3121
3001 3007 3015 3021 3028 3034 3039 3043 3048 3050 3053 3055 3055 3058 3059 3063 3066 3073 3078 3082 3087 3091 3100 3106 3109 3113 3114 3116 3115 3118 3118 3119 3120 3120 3119 3121 3119 3117 3114 3114 3115 3115 3114
2996 3001 3005 3012 3018 3024 3029 3033 3038 3040 3044 3048 3047 3051 3053 3059 3061 3065 3070 3076 3082 3090 3094 3098 3100 3104 3105 3106 3108 3110 3112 3113 3113 3114 3112 3112 3111 3110 3108 3107 3107 3106 3108
Wind_Speed
15 15 15 10 1 3 6 8 8 8 9 10 9 9 9 9 9 7 6 6 4 3 3 4 2 2 3 4 5 5 5 6 6 6 7 8 8 8 7 7 9 8 8
11 15 15 12 8 5 5 7 9 10 9 10 11 10 10 9 9 8 7 6 4 5 5 4 3 3 3 5 5 6 7 7 8 9 10 9 8 8 8 8 10 8 8
11 16 16 13 10 7 7 9 10 10 11 10 11 11 10 9 10 10 8 6 5 4 5 4 3 4 4 5 6 6 8 9 9 9 9 9 8 8 9 9 8 9 9
8 14 14 12 11 10 11 11 11 12 12 11 11 10 11 10 11 10 9 6 5 5 5 4 3 3 4 6 7 8 8 9 9 8 7 8 8 8 8 8 8 8 8
12 14 13 12 10 11 13 14 13 13 13 12 12 11 11 11 11 11 10 8 5 6 6 5 4 4 5 7 8 9 9 8 8 7 7 7 7 7 7 7 7 7 8
14 14 16 14 14 15 14 15 15 15 14 13 13 12 12 11 12 13 11 9 7 7 7 6 5 5 6 8 8 7 7 7 6 5 5 5 5 5 5 5 6 6 7
11 12 12 16 14 15 16 16 17 17 16 15 14 13 14 14 14 14 13 10 10 9 8 7 7 6 7 8 8 8 7 7 5 4 3 3 2 2 3 3 4 4 6
17 16 17 13 11 13 14 15 17 17 17 17 17 16 16 16 17 16 15 13 12 11 10 9 8 8 8 8 8 7 7 6 5 4 3 2 1 0 1 2 3 4 5
21 20 17 19 19 14 15 17 16 18 18 19 18 18 20 20 19 19 17 15 14 12 12 10 10 10 9 8 7 5 5 5 4 4 4 3 3 2 3 3 3 4 5
23 22 22 21 23 22 20 18 19 20 20 20 20 21 22 23 22 20 20 17 16 14 13 12 12 11 9 8 7 6 5 5 5 5 5 5 5 6 5 5 5 5 6
23 23 23 22 22 26 25 24 21 21 21 20 22 23 24 26 25 23 20 19 16 16 15 14 14 12 11 9 7 6 6 6 6 6 6 6 6 7 7 7 6 5 7
23 24 23 20 22 23 23 28 27 24 22 21 23 25 27 29 27 23 22 20 19 17 16 16 16 14 11 9 7 7 6 7 7 7 7 7 7 7 7 7 7 6 7
34 29 25 25 24 23 24 26 31 28 26 24 23 25 28 31 31 25 25 24 21 19 19 19 17 15 13 10 9 8 7 7 8 7 6 7 7 6 7 8 7 7 8
37 36 31 26 25 25 21 23 26 27 26 24 24 24 28 31 32 27 27 26 23 21 21 20 19 17 14 12 10 9 8 7 7 7 6 6 6 6 7 6 7 8 9
37 39 37 33 28 25 25 23 26 28 26 24 26 26 29 31 31 28 30 29 26 25 23 22 21 18 15 13 11 9 9 8 8 7 7 6 5 7 7 7 9 8 10
43 41 41 37 32 29 26 24 23 26 28 28 26 27 29 31 31 31 33 31 30 29 27 24 22 19 17 15 13 11 10 10 10 9 9 8 7 9 9 9 12 9 10
48 46 44 39 36 31 31 28 26 27 32 26 25 29 31 34 35 32 37 36 32 32 31 28 26 24 21 17 14 13 12 13 13 13 12 11 11 11 10 11 14 13 13
52 50 48 46 42 39 36 32 31 29 30 29 26 29 30 36 38 37 39 46 31 36 33 30 27 25 22 19 18 15 15 15 15 14 14 13 15 15 14 16 16 18 18
57 51 48 49 48 43 40 38 36 34 34 32 31 29 28 35 37 37 39 53 36 39 39 33 31 27 25 22 19 19 18 17 17 16 15 15 17 18 19 19 21 23 22
63 52 49 48 49 48 46 41 40 42 43 41 39 35 34 34 41 42 44 34 40 40 36 34 34 31 27 24 24 23 21 19 19 17 16 15 16 18 19 19 23 27 26
56 52 49 47 47 49 47 48 47 47 46 45 42 42 40 40 38 45 52 43 45 41 37 38 37 33 31 28 27 25 24 22 20 18 15 14 14 20 23 26 29 26 25
42 48 49 47 43 47 48 46 41 36 46 44 39 44 50 50 43 46 47 54 40 32 35 40 37 35 32 32 29 28 28 25 23 21 21 20 25 30 29 30 31 27 27
31 36 40 43 45 43 42 45 53 55 45 42 45 47 53 52 47 53 43 41 52 39 41 38 39 36 34 33 31 30 30 30 28 26 23 26 33 40 41 36 29 26 27
29 33 36 35 37 41 43 42 53 57 56 59 57 51 53 52 51 53 51 51 49 41 35 39 34 35 34 32 33 32 32 33 30 34 41 42 36 37 46 44 31 30 30
27 30 31 32 34 39 44 48 53 54 59 56 50 38 39 41 45 47 52 57 54 35 38 38 36 35 36 35 35 34 35 33 36 45 49 36 31 43 36 33 34 36 26
28 30 35 35 36 42 41 41 42 45 48 36 29 40 33 40 43 38 33 37 41 36 39 37 39 41 38 41 35 35 41 40 33 41 42 40 40 28 24 24 24 34 29
Wind_Direction
262 258 252 258 309 255 266 281 278 271 271 268 258 248 243 231 226 221 217 197 219 254 276 278 253 124 130 124 121 124 126 119 113 116 112 105 99 93 89 88 82 80 78
239 228 247 247 244 259 286 273 271 270 262 258 256 250 238 223 212 205 201 209 221 266 293 250 208 184 164 136 132 127 123 124 124 123 119 110 104 92 83 75 81 82 76
241 241 239 232 235 248 262 265 261 263 261 254 251 249 235 213 199 197 199 214 242 280 282 241 222 174 155 136 130 134 134 130 126 122 120 112 104 100 94 88 82 74 73
255 248 238 231 233 243 250 252 256 254 254 250 246 240 229 212 200 196 200 215 249 263 268 252 224 181 156 145 144 142 137 134 130 126 123 117 108 102 100 92 85 78 66
256 243 245 253 249 249 251 242 239 246 246 247 239 234 220 210 203 203 204 216 234 263 260 247 227 193 165 153 147 146 142 141 136 135 129 120 112 103 95 90 80 68 57
240 239 245 244 256 262 246 236 237 236 238 240 239 230 217 218 209 210 208 220 228 249 254 244 235 204 170 156 152 154 149 148 143 144 137 126 118 106 93 76 64 54 43
230 229 236 250 252 256 252 235 237 238 233 231 231 224 214 213 214 213 212 222 231 238 234 235 227 211 183 164 165 165 164 162 160 160 157 148 124 91 68 57 42 34 28
221 232 240 239 244 245 256 248 245 242 242 234 225 216 215 215 218 215 217 221 228 235 226 223 219 210 192 180 180 179 176 184 181 185 187 196 178 119 360 353 5 5 0
217 222 239 245 251 258 258 264 256 248 243 243 232 217 212 209 213 217 218 223 226 231 224 220 217 208 201 190 191 199 199 199 211 218 232 237 246 257 289 309 326 340 344
224 228 238 245 251 250 253 252 257 253 249 243 238 229 214 210 213 214 220 222 228 226 225 219 214 209 207 203 200 207 221 228 236 243 248 256 264 274 280 294 309 319 331
227 227 233 237 242 246 245 246 244 248 249 246 242 231 222 212 211 214 218 224 227 227 224 220 217 213 211 210 214 217 231 246 252 257 261 266 271 276 282 290 298 312 322
220 230 234 235 237 242 241 241 240 244 249 250 248 239 221 216 211 213 214 225 228 227 226 223 219 217 218 218 223 225 235 248 254 258 262 268 269 273 275 283 292 303 310
224 226 232 234 240 239 244 242 240 237 243 248 248 244 233 218 217 213 214 221 226 228 229 228 223 219 221 225 230 237 241 248 260 265 268 273 271 273 279 286 292 295 300
229 230 229 230 231 236 231 237 234 230 239 242 243 243 237 228 221 215 216 221 222 228 229 229 224 220 221 229 235 239 244 249 258 264 267 266 269 270 268 275 282 287 292
230 226 228 227 234 233 233 234 235 234 235 242 250 241 233 228 225 222 223 218 216 218 223 227 228 222 222 230 237 246 252 257 259 263 266 262 268 274 276 273 274 281 288
230 226 225 228 223 234 235 231 235 238 237 239 245 247 231 227 225 227 229 218 221 217 217 220 226 224 225 230 237 247 254 257 257 257 262 264 268 273 274 278 278 274 279
234 230 226 225 225 224 231 234 230 231 233 228 239 241 244 230 229 229 234 228 215 219 215 215 219 221 225 230 240 248 257 258 257 256 258 266 268 271 272 276 276 279 279
231 233 230 229 229 229 227 232 235 233 244 247 251 246 240 234 229 228 240 235 211 216 215 218 220 223 226 231 240 250 256 257 259 263 269 274 279 281 278 273 280 283 282
231 231 230 229 230 232 233 232 236 239 243 246 247 246 243 246 241 238 245 238 207 208 213 219 222 223 227 234 244 252 255 257 260 266 274 278 283 288 287 292 294 287 280
231 229 229 226 226 231 236 237 237 240 243 245 247 250 254 252 253 242 238 238 212 212 214 217 223 225 231 237 244 248 253 257 262 266 271 280 289 288 286 298 299 284 277
236 227 225 224 223 226 230 238 245 246 248 250 252 253 255 256 261 271 257 232 212 210 214 219 224 226 231 238 245 250 254 255 258 262 267 273 283 304 295 300 301 282 272
239 235 226 224 221 224 224 229 238 245 247 249 252 253 256 255 257 253 257 235 233 219 209 219 225 229 233 239 246 251 252 253 253 254 258 277 287 284 301 293 290 280 268
231 227 227 227 226 227 228 232 238 248 248 244 247 256 252 251 253 250 246 242 244 244 212 219 226 228 236 242 247 250 251 254 255 253 266 286 294 294 295 286 280 274 272
230 225 223 222 228 235 235 238 242 250 255 258 265 263 250 250 248 235 235 241 243 234 218 222 223 229 234 240 246 249 255 257 254 263 276 288 295 287 285 282 274 262 262
210 216 223 228 230 229 235 241 247 252 258 264 261 253 237 234 230 232 234 241 232 218 216 218 223 230 235 237 239 244 249 256 264 274 284 281 278 291 281 270 268 259 261
220 223 216 228 234 239 245 249 251 250 246 241 248 225 214 211 210 208 209 218 223 214 216 222 226 231 230 234 235 243 252 257 271 273 279 274 286 267 270 277 271 258 261